New Castle, PA

1:55 PM EST on February 10, 2016 (GMT -0500)
New Castle Municipal

Weather History for KUCP - April, 2014

Change the Weather History Date:

Tuesday, April 29, 2014

  Actual Average Record
Temperature  
Mean Temperature 54 °F -  
Max Temperature 61 °F 64 °F 89 °F (1986)
Min Temperature 48 °F 37 °F 23 °F (1977)
Degree Days  
Heating Degree Days 10    
Growing Degree Days 4 (Base 50)    
Moisture  
Dew Point 47 °F    
Average Humidity 86    
Maximum Humidity 100    
Minimum Humidity 63    
Precipitation  
Precipitation 0.31 in - - ()
Sea Level Pressure  
Sea Level Pressure 29.86 in    
Wind  
Wind Speed 10 mph (SE)    
Max Wind Speed 20 mph    
Max Gust Speed 29 mph    
Visibility 6 miles    
Events Rain    
Averages and records for this station are not official NWS values.
T = Trace of Precipitation, MM = Missing Value Source: NWS Daily Summary

Daily Weather History Graph

Daily Weather History Graph

Search for Another Location

Airport or City:

Trip Planner

Search our weather history database for the weather conditions in past years. The results will help you decide how hot, cold, wet, or windy it might be!

Date:

Astronomy

Apr. 29, 2014 Rise Set
Actual Time 6:22 AM EDT 8:16 PM EDT
Civil Twilight 5:52 AM EDT 8:46 PM EDT
Nautical Twilight 5:16 AM EDT 9:22 PM EDT
Astronomical Twilight 4:37 AM EDT 10:01 PM EDT
Moon 6:39 AM EDT (4/29) 8:55 PM EDT (4/29)
Length of Visible Light 14h 53m
Length of Day
13h 54m
New Moon, 0% of the Moon is Illuminated
Apr 29
New Moon
May 6
First Quarter
May 14
Full
May 21
Last Quarter
May 28
New

Hourly Weather History & Observations

Time (EDT) Temp. Dew Point Humidity Pressure Visibility Wind Dir Wind Speed Gust Speed Precip Events Conditions
12:56 AM 50.0 °F 45.9 °F 86% 29.90 in 10.0 mi ESE 8.1 mph - N/A   Overcast
1:56 AM 50.9 °F 46.9 °F 86% 29.91 in 10.0 mi SE 3.5 mph - N/A   Overcast
2:56 AM 50.0 °F 47.8 °F 92% 29.90 in 7.0 mi Calm Calm - 0.01 in Rain Light Rain
3:11 AM 50.0 °F 48.2 °F 94% 29.85 in 7.0 mi SE 4.6 mph - 0.00 in Rain Light Rain
3:56 AM 50.0 °F 47.8 °F 92% 29.90 in 5.0 mi SE 3.5 mph - 0.01 in Rain Light Rain
4:47 AM 50.0 °F 48.2 °F 94% 29.81 in 10.0 mi ESE 10.4 mph 16.1 mph 0.02 in Rain Light Rain
5:56 AM 50.0 °F 47.8 °F 92% 29.85 in 7.0 mi ESE 10.4 mph 17.3 mph 0.01 in Rain Light Rain
6:09 AM 50.0 °F 48.2 °F 94% 29.82 in 3.0 mi SSE 4.6 mph - 0.02 in Rain Light Rain
6:18 AM 50.0 °F 48.2 °F 94% 29.82 in 2.5 mi Variable 6.9 mph - 0.05 in Rain Rain
6:25 AM 50.0 °F 48.2 °F 94% 29.82 in 4.0 mi SE 6.9 mph - 0.07 in Rain Light Rain
6:56 AM 50.0 °F 47.8 °F 92% 29.87 in 4.0 mi ESE 11.5 mph 18.4 mph 0.10 in Rain Light Rain
7:13 AM 50.0 °F 48.2 °F 94% 29.80 in 2.0 mi ESE 12.7 mph 20.7 mph 0.02 in Rain Light Rain
7:40 AM 50.0 °F 48.2 °F 94% 29.80 in 1.8 mi ESE 11.5 mph 19.6 mph 0.06 in Rain Light Rain
7:44 AM 50.0 °F 48.2 °F 94% 29.80 in 1.8 mi ESE 13.8 mph 19.6 mph 0.07 in Rain Rain
7:48 AM 50.0 °F 48.2 °F 94% 29.80 in 1.5 mi SE 8.1 mph 17.3 mph 0.09 in Rain Rain
8:03 AM 48.2 °F 48.2 °F 100% 29.80 in 2.0 mi ESE 12.7 mph - 0.01 in Rain Light Rain
8:12 AM 50.0 °F 48.2 °F 94% 29.80 in 3.0 mi ESE 12.7 mph 20.7 mph 0.02 in Rain Light Rain
8:14 AM 50.0 °F 48.2 °F 94% 29.80 in 3.0 mi ESE 15.0 mph 20.7 mph 0.02 in Rain Light Rain
8:17 AM 50.0 °F 48.2 °F 94% 29.80 in 2.5 mi ESE 12.7 mph 23.0 mph 0.02 in Rain Light Rain
8:35 AM 50.0 °F 48.2 °F 94% 29.79 in 1.8 mi ESE 12.7 mph 24.2 mph 0.07 in Rain Light Rain
8:42 AM 50.0 °F 48.2 °F 94% 29.79 in 2.0 mi ESE 12.7 mph 19.6 mph 0.08 in Rain Light Rain
8:56 AM 50.0 °F 47.8 °F 92% 29.85 in 2.0 mi SE 13.8 mph 23.0 mph 0.10 in Rain Light Rain
9:05 AM 50.0 °F 48.2 °F 94% 29.79 in 5.0 mi ESE 13.8 mph 21.9 mph 0.00 in Rain Light Rain
9:16 AM 50.0 °F 48.2 °F 94% 29.78 in 2.5 mi ESE 16.1 mph 20.7 mph 0.02 in Rain Light Rain
9:20 AM 50.0 °F 48.2 °F 94% 29.78 in 4.0 mi ESE 13.8 mph 19.6 mph 0.02 in Rain Light Rain
9:36 AM 50.0 °F 48.2 °F 94% 29.78 in 10.0 mi ESE 8.1 mph 24.2 mph 0.02 in   Overcast
9:56 AM 50.0 °F 46.9 °F 89% 29.83 in 10.0 mi SE 19.6 mph 26.5 mph 0.02 in Rain Light Rain
10:12 AM 50.0 °F 46.4 °F 87% 29.78 in 6.0 mi ESE 13.8 mph 28.8 mph 0.01 in Rain Light Rain
10:17 AM 50.0 °F 46.4 °F 87% 29.79 in 2.5 mi ESE 15.0 mph 28.8 mph 0.02 in Rain Light Rain
10:25 AM 48.2 °F 46.4 °F 93% 29.79 in 3.0 mi ESE 12.7 mph 25.3 mph 0.02 in Rain Light Rain
10:56 AM 50.0 °F 46.4 °F 87% 29.79 in 8.0 mi SE 12.7 mph 26.5 mph N/A Rain Light Rain
11:16 AM 48.2 °F 46.4 °F 93% 29.80 in 4.0 mi SE 11.5 mph 21.9 mph 0.03 in Rain Light Rain
11:56 AM 50.0 °F 47.8 °F 92% 29.78 in 4.0 mi ESE 12.7 mph 24.2 mph 0.05 in Rain Light Rain
12:29 PM 50.0 °F 48.2 °F 94% 29.81 in 2.5 mi ESE 11.5 mph 18.4 mph 0.01 in Rain Light Rain
12:39 PM 50.0 °F 48.2 °F 94% 29.82 in 2.5 mi SE 13.8 mph 21.9 mph 0.01 in Rain Light Rain
12:46 PM 50.0 °F 46.4 °F 87% 29.82 in 7.0 mi SE 12.7 mph 23.0 mph 0.01 in Rain Light Rain
12:56 PM 50.0 °F 46.9 °F 89% 29.88 in 10.0 mi SE 10.4 mph 21.9 mph 0.01 in Rain Light Rain
1:07 PM 51.8 °F 46.4 °F 82% 29.84 in 10.0 mi SE 13.8 mph 20.7 mph 0.00 in   Overcast
1:56 PM 53.6 °F 46.4 °F 77% 29.87 in 10.0 mi SE 12.7 mph 17.3 mph N/A   Overcast
2:09 PM 53.6 °F 48.2 °F 82% 29.87 in 10.0 mi SE 4.6 mph - N/A   Overcast
2:45 PM 59.0 °F 50.0 °F 72% 29.87 in 10.0 mi SE 10.4 mph 19.6 mph N/A   Mostly Cloudy
2:56 PM 59.9 °F 50.0 °F 70% 29.91 in 10.0 mi SE 11.5 mph 25.3 mph N/A   Mostly Cloudy
3:33 PM 60.8 °F 50.0 °F 68% 29.87 in 10.0 mi SE 12.7 mph 25.3 mph N/A   Mostly Cloudy
3:56 PM 61.9 °F 50.9 °F 67% 29.92 in 10.0 mi SE 12.7 mph 24.2 mph N/A   Scattered Clouds
4:18 PM 60.8 °F 48.2 °F 63% 29.89 in 10.0 mi SE 15.0 mph - N/A   Mostly Cloudy
4:42 PM 60.8 °F 50.0 °F 68% 29.90 in 10.0 mi ESE 16.1 mph 27.6 mph N/A   Mostly Cloudy
4:56 PM 59.0 °F 48.2 °F 67% 29.91 in 10.0 mi SSE 12.7 mph 23.0 mph N/A   Scattered Clouds
5:56 PM 59.9 °F 47.8 °F 64% 29.96 in 10.0 mi SE 15.0 mph 25.3 mph N/A   Partly Cloudy
6:56 PM 57.9 °F 45.9 °F 64% 29.99 in 10.0 mi SE 16.1 mph 25.3 mph N/A   Partly Cloudy
7:56 PM 54.0 °F 45.0 °F 72% 29.99 in 10.0 mi ESE 16.1 mph 25.3 mph N/A   Clear
8:27 PM 51.8 °F 44.6 °F 76% 29.95 in 10.0 mi ESE 11.5 mph 24.2 mph N/A   Mostly Cloudy
8:56 PM 50.9 °F 43.9 °F 77% 30.02 in 10.0 mi ESE 11.5 mph 26.5 mph N/A   Mostly Cloudy
9:04 PM 51.8 °F 44.6 °F 76% 29.97 in 10.0 mi ESE 11.5 mph 17.3 mph N/A   Scattered Clouds
9:56 PM 48.9 °F 43.0 °F 80% 30.04 in 10.0 mi ESE 12.7 mph 20.7 mph N/A   Clear
10:56 PM 48.9 °F 41.9 °F 77% 30.04 in 10.0 mi SE 13.8 mph 17.3 mph N/A   Clear
11:56 PM 50.0 °F 43.0 °F 77% 30.04 in 10.0 mi SE 9.2 mph 16.1 mph N/A   Partly Cloudy